When you browse on this site, cookies collect data to enhance your experience and personalize the content and advertising you see.
Visit our Privacy Policy to learn more. By continuing to use the site, you agree to this use of cookies and data.

Météo par heure à Caen

Ce jour, 14 Août, Vendredi

Heure Température Précipitation Vent Pression Humidité
00:00 +20°C° 0 mm 1 m/s 758 mmHg 94%
01:00 +19°C° 0.3 mm 2 m/s 758 mmHg 95%
02:00 +19°C° 0.3 mm 2 m/s 758 mmHg 95%
03:00 +19°C° 0.3 mm 2 m/s 758 mmHg 96%
04:00 +19°C° 0.1 mm 2 m/s 758 mmHg 96%
05:00 +19°C° 0.1 mm 2 m/s 758 mmHg 96%
06:00 +19°C° 0.1 mm 2 m/s 758 mmHg 96%
07:00 +20°C° 0.2 mm 3 m/s 758 mmHg 94%
08:00 +20°C° 0.2 mm 3 m/s 758 mmHg 92%
09:00 +21°C° 0.2 mm 4 m/s 758 mmHg 90%
10:00 +22°C° 0.5 mm 4 m/s 759 mmHg 87%
11:00 +22°C° 0.5 mm 4 m/s 759 mmHg 84%
12:00 +23°C° 0.5 mm 5 m/s 759 mmHg 81%
13:00 +23°C° 0.3 mm 5 m/s 759 mmHg 81%
14:00 +23°C° 0.3 mm 5 m/s 758 mmHg 81%
15:00 +22°C° 0.3 mm 6 m/s 758 mmHg 81%
16:00 +22°C° 0.1 mm 5 m/s 758 mmHg 83%
17:00 +21°C° 0.1 mm 5 m/s 759 mmHg 86%
18:00 +21°C° 0.1 mm 5 m/s 759 mmHg 88%
19:00 +20°C° 0 mm 4 m/s 759 mmHg 91%
20:00 +20°C° 0 mm 4 m/s 759 mmHg 93%
21:00 +19°C° 0 mm 3 m/s 759 mmHg 96%
22:00 +19°C° 0 mm 3 m/s 759 mmHg 95%
23:00 +19°C° 0 mm 3 m/s 759 mmHg 95%

Demain, 15 Août, Samedi

Heure Température Précipitation Vent Pression Humidité
00:00 +18°C° 0 mm 3 m/s 759 mmHg 95%
01:00 +18°C° 0 mm 3 m/s 759 mmHg 95%
02:00 +18°C° 0 mm 3 m/s 759 mmHg 94%
03:00 +17°C° 0 mm 3 m/s 759 mmHg 94%
04:00 +17°C° 0 mm 3 m/s 759 mmHg 93%
05:00 +17°C° 0 mm 3 m/s 759 mmHg 91%
06:00 +17°C° 0 mm 3 m/s 759 mmHg 90%
07:00 +18°C° 0 mm 3 m/s 759 mmHg 83%
08:00 +20°C° 0 mm 3 m/s 759 mmHg 76%
09:00 +21°C° 0 mm 3 m/s 759 mmHg 69%
10:00 +22°C° 0 mm 3 m/s 759 mmHg 63%
11:00 +25°C° 0 mm 3 m/s 759 mmHg 58%
12:00 +26°C° 0 mm 2 m/s 758 mmHg 52%
13:00 +26°C° 0 mm 2 m/s 758 mmHg 52%
14:00 +26°C° 0 mm 2 m/s 758 mmHg 52%
15:00 +27°C° 0 mm 2 m/s 758 mmHg 51%
16:00 +25°C° 0 mm 2 m/s 758 mmHg 59%
17:00 +24°C° 0 mm 2 m/s 757 mmHg 67%
18:00 +23°C° 0 mm 2 m/s 757 mmHg 74%
19:00 +21°C° 0 mm 2 m/s 757 mmHg 80%
20:00 +21°C° 0 mm 1 m/s 757 mmHg 86%
21:00 +20°C° 0 mm 1 m/s 758 mmHg 92%
22:00 +19°C° 0 mm 1 m/s 757 mmHg 93%
23:00 +19°C° 0 mm 1 m/s 757 mmHg 93%

Après-demain, 16 Août, Dimanche

Heure Température Précipitation Vent Pression Humidité
00:00 +19°C° 0 mm 1 m/s 757 mmHg 93%
01:00 +19°C° 0 mm 1 m/s 756 mmHg 94%
02:00 +18°C° 0 mm 1 m/s 756 mmHg 94%
03:00 +18°C° 0 mm 1 m/s 756 mmHg 94%
04:00 +18°C° 0.1 mm 1 m/s 756 mmHg 93%
05:00 +19°C° 0.1 mm 1 m/s 755 mmHg 92%
06:00 +19°C° 0.1 mm 1 m/s 755 mmHg 92%
07:00 +20°C° 0.1 mm 1 m/s 755 mmHg 85%
08:00 +22°C° 0.1 mm 1 m/s 755 mmHg 78%
09:00 +24°C° 0.1 mm 1 m/s 755 mmHg 71%
10:00 +25°C° 0.3 mm 2 m/s 755 mmHg 66%
11:00 +26°C° 0.3 mm 2 m/s 755 mmHg 62%
12:00 +27°C° 0.3 mm 2 m/s 755 mmHg 57%
13:00 +27°C° 1.1 mm 3 m/s 755 mmHg 58%
14:00 +27°C° 1.1 mm 4 m/s 754 mmHg 60%
15:00 +26°C° 1.1 mm 4 m/s 754 mmHg 61%
16:00 +25°C° 0.4 mm 4 m/s 754 mmHg 65%
17:00 +24°C° 0.4 mm 3 m/s 754 mmHg 70%
18:00 +22°C° 0.4 mm 3 m/s 754 mmHg 74%
19:00 +21°C° 0 mm 3 m/s 755 mmHg 79%
20:00 +19°C° 0 mm 3 m/s 755 mmHg 83%
21:00 +18°C° 0 mm 4 m/s 755 mmHg 88%
22:00 +17°C° 0 mm 4 m/s 755 mmHg 90%
23:00 +17°C° 0 mm 4 m/s 755 mmHg 92%

17 Août, Lundi

Heure Température Précipitation Vent Pression Humidité
00:00 +17°C° 0 mm 3 m/s 755 mmHg 94%
01:00 +16°C° 0 mm 3 m/s 755 mmHg 95%
02:00 +16°C° 0 mm 3 m/s 755 mmHg 95%
03:00 +16°C° 0 mm 3 m/s 755 mmHg 96%
04:00 +16°C° 0 mm 3 m/s 755 mmHg 96%
05:00 +16°C° 0 mm 3 m/s 755 mmHg 96%
06:00 +16°C° 0 mm 3 m/s 755 mmHg 95%
07:00 +17°C° 0.4 mm 3 m/s 755 mmHg 91%
08:00 +19°C° 0.4 mm 3 m/s 755 mmHg 88%
09:00 +20°C° 0.4 mm 4 m/s 756 mmHg 84%
10:00 +21°C° 0.8 mm 4 m/s 756 mmHg 80%
11:00 +21°C° 0.8 mm 4 m/s 756 mmHg 76%
12:00 +22°C° 0.8 mm 4 m/s 756 mmHg 73%
13:00 +23°C° 0.3 mm 4 m/s 756 mmHg 69%
14:00 +23°C° 0.3 mm 4 m/s 756 mmHg 65%
15:00 +23°C° 0.3 mm 4 m/s 756 mmHg 61%
16:00 +23°C° 0.1 mm 4 m/s 756 mmHg 65%
17:00 +22°C° 0.1 mm 4 m/s 757 mmHg 70%
18:00 +21°C° 0.1 mm 4 m/s 757 mmHg 74%
19:00 +19°C° 0 mm 4 m/s 757 mmHg 79%
20:00 +18°C° 0 mm 3 m/s 757 mmHg 85%
21:00 +16°C° 0 mm 3 m/s 758 mmHg 91%
22:00 +16°C° 0 mm 3 m/s 758 mmHg 92%
23:00 +16°C° 0 mm 3 m/s 758 mmHg 94%

18 Août, Mardi

Heure Température Précipitation Vent Pression Humidité
00:00 +14°C° 0 mm 3 m/s 758 mmHg 95%
01:00 +14°C° 0 mm 3 m/s 758 mmHg 96%
02:00 +14°C° 0 mm 3 m/s 758 mmHg 96%
03:00 +14°C° 0 mm 3 m/s 758 mmHg 96%
04:00 +14°C° 0 mm 3 m/s 758 mmHg 96%
05:00 +14°C° 0 mm 4 m/s 758 mmHg 96%
06:00 +14°C° 0 mm 4 m/s 758 mmHg 96%
07:00 +17°C° 0 mm 4 m/s 758 mmHg 89%
08:00 +19°C° 0 mm 4 m/s 759 mmHg 82%
09:00 +20°C° 0 mm 4 m/s 759 mmHg 74%
10:00 +21°C° 0 mm 4 m/s 759 mmHg 69%
11:00 +22°C° 0 mm 4 m/s 759 mmHg 63%
12:00 +23°C° 0 mm 4 m/s 758 mmHg 58%
13:00 +25°C° 0 mm 5 m/s 758 mmHg 57%
14:00 +25°C° 0 mm 5 m/s 758 mmHg 56%
15:00 +25°C° 0 mm 5 m/s 758 mmHg 55%
16:00 +23°C° 0 mm 4 m/s 758 mmHg 60%
17:00 +22°C° 0 mm 3 m/s 758 mmHg 64%
18:00 +22°C° 0 mm 3 m/s 758 mmHg 69%
19:00 +20°C° 0 mm 2 m/s 758 mmHg 75%
20:00 +19°C° 0 mm 1 m/s 759 mmHg 81%
21:00 +18°C° 0 mm 1 m/s 759 mmHg 86%
22:00 +18°C° 0 mm 1 m/s 759 mmHg 87%
23:00 +16°C° 0 mm 1 m/s 759 mmHg 88%

19 Août, Mercredi

Heure Température Précipitation Vent Pression Humidité
00:00 +16°C° 0 mm 1 m/s 758 mmHg 89%
01:00 +16°C° 0 mm 2 m/s 758 mmHg 90%
02:00 +16°C° 0 mm 2 m/s 758 mmHg 91%
03:00 +16°C° 0 mm 2 m/s 757 mmHg 91%
04:00 +16°C° 0 mm 2 m/s 757 mmHg 91%
05:00 +16°C° 0 mm 2 m/s 757 mmHg 91%
06:00 +16°C° 0 mm 2 m/s 756 mmHg 91%
07:00 +19°C° 0 mm 3 m/s 756 mmHg 83%
08:00 +21°C° 0 mm 3 m/s 756 mmHg 75%
09:00 +24°C° 0 mm 3 m/s 756 mmHg 66%
10:00 +25°C° 0 mm 4 m/s 755 mmHg 62%
11:00 +26°C° 0 mm 4 m/s 754 mmHg 57%
12:00 +27°C° 0 mm 4 m/s 754 mmHg 53%
13:00 +28°C° 0 mm 4 m/s 753 mmHg 50%
14:00 +28°C° 0 mm 5 m/s 752 mmHg 48%
15:00 +29°C° 0 mm 5 m/s 751 mmHg 45%
16:00 +27°C° 0.3 mm 5 m/s 751 mmHg 58%
17:00 +23°C° 0.3 mm 5 m/s 750 mmHg 71%
18:00 +21°C° 0.3 mm 4 m/s 750 mmHg 84%
19:00 +21°C° 0.1 mm 5 m/s 750 mmHg 86%
20:00 +20°C° 0.1 mm 6 m/s 749 mmHg 88%
21:00 +20°C° 0.1 mm 7 m/s 749 mmHg 90%
22:00 +20°C° 0.2 mm 7 m/s 749 mmHg 91%
23:00 +21°C° 0.2 mm 7 m/s 749 mmHg 92%
Voir plus